TimeMDT,TemperatureF,Dew PointF,Humidity,Sea Level PressureIn,VisibilityMPH,Wind Direction,Wind SpeedMPH,Gust SpeedMPH,PrecipitationIn,Events,Conditions,WindDirDegrees,DateUTC
12:53 AM,33.1,12.9,43,30.01,10.0,Calm,Calm,-,N/A,,Clear,0,2013-04-03 06:53:00
1:53 AM,24.1,12.9,62,30.06,10.0,North,4.6,-,N/A,,Clear,10,2013-04-03 07:53:00
2:53 AM,26.1,12.9,58,30.04,10.0,East,6.9,-,N/A,,Clear,90,2013-04-03 08:53:00
3:53 AM,25.0,12.0,58,30.04,10.0,NNW,3.5,-,N/A,,Clear,340,2013-04-03 09:53:00
4:53 AM,24.1,15.1,69,30.06,10.0,Calm,Calm,-,N/A,,Clear,0,2013-04-03 10:53:00
5:53 AM,21.9,15.1,75,30.05,10.0,NNE,3.5,-,N/A,,Clear,20,2013-04-03 11:53:00
6:53 AM,19.9,14.0,78,30.09,10.0,Calm,Calm,-,N/A,,Clear,0,2013-04-03 12:53:00
7:53 AM,27.0,17.1,66,30.12,10.0,Calm,Calm,-,N/A,,Clear,0,2013-04-03 13:53:00
8:53 AM,33.1,18.0,54,30.11,10.0,East,4.6,-,N/A,,Clear,80,2013-04-03 14:53:00
9:53 AM,43.0,18.0,37,30.08,10.0,East,4.6,-,N/A,,Clear,100,2013-04-03 15:53:00
10:53 AM,48.9,19.0,31,30.07,10.0,Calm,Calm,-,N/A,,Clear,0,2013-04-03 16:53:00
11:53 AM,53.1,19.0,26,30.04,10.0,Calm,Calm,-,N/A,,Clear,0,2013-04-03 17:53:00
12:53 PM,57.0,16.0,20,30.02,10.0,West,5.8,-,N/A,,Clear,280,2013-04-03 18:53:00
1:53 PM,60.1,10.9,14,30.04,10.0,West,11.5,20.7,N/A,,Clear,280,2013-04-03 19:53:00
2:53 PM,57.0,14.0,18,30.04,10.0,NW,12.7,20.7,N/A,,Clear,310,2013-04-03 20:53:00
3:53 PM,57.0,19.9,24,30.05,10.0,NW,15.0,25.3,N/A,,Scattered Clouds,320,2013-04-03 21:53:00
4:53 PM,55.0,19.9,25,30.05,10.0,NW,18.4,23.0,N/A,,Clear,320,2013-04-03 22:53:00
5:53 PM,55.9,19.0,24,30.07,10.0,NW,15.0,-,N/A,,Clear,320,2013-04-03 23:53:00
6:53 PM,53.1,19.9,27,30.11,10.0,NNW,12.7,-,N/A,,Clear,340,2013-04-04 00:53:00
7:53 PM,45.0,25.0,46,30.13,10.0,North,11.5,-,N/A,,Clear,10,2013-04-04 01:53:00
8:53 PM,37.9,25.0,60,30.14,10.0,NW,4.6,-,N/A,,Clear,320,2013-04-04 02:53:00
9:53 PM,34.0,23.0,64,30.12,10.0,North,8.1,-,N/A,,Clear,360,2013-04-04 03:53:00
10:53 PM,30.9,23.0,72,30.13,10.0,West,3.5,-,N/A,,Clear,270,2013-04-04 04:53:00
11:53 PM,32.0,23.0,69,30.09,10.0,Calm,Calm,-,N/A,,Clear,0,2013-04-04 05:53:00